Location: Unspecified
(33.9239°N, 118.0544°W)
Time: 05:05:46
(UTC-07:00)

Daily predictions for brighter satellites

Satellite Brightness Start Highest point End
(mag) Time Altitude Azimuth Time Altitude Azimuth Time Altitude Azimuth
Cosmos 2344 4.3 03:16:59 49° NE 03:16:59 49° NE 03:22:51 10° NNE
Cosmos 2333 Rocket 3.9 03:32:28 10° N 03:37:22 29° ENE 03:42:12 10° ESE
Okean O Rocket 4.5 03:36:57 10° NE 03:37:51 14° NE 03:37:51 14° NE
Lacrosse 5 3.7 03:57:13 28° NE 03:57:13 28° NE 03:59:33 10° NE
USA 215 3.8 03:51:38 10° SE 03:56:09 48° SE 03:56:09 48° SE
CZ-4B R/B 4.4 03:56:49 10° NNE 04:01:49 37° E 04:02:41 35° ESE
Cosmos 2237 Rocket 3.5 03:56:55 10° N 04:02:07 37° ENE 04:07:16 10° SE
ATLAS 5 CENTAUR R/B 3.7 04:01:45 10° NNW 04:07:24 38° NE 04:13:23 10° ESE
Cosmos 1980 4.3 04:10:26 10° N 04:16:00 54° ENE 04:21:33 10° SE
ADEOS II 4.2 04:12:46 10° NE 04:16:56 24° E 04:21:04 10° SSE
ADEOS Rocket 4.2 04:10:51 10° NNE 04:17:26 42° E 04:23:21 10° SSE
Centaur D-1A AC-35 4.3 04:19:37 19° SE 04:19:37 19° SE 04:21:06 10° ESE
Meteor 1-13 Rocket 4.4 04:20:25 67° NNE 04:20:25 67° NNE 04:25:21 10° N
RESURS DK-1 4.3 04:21:58 25° NNE 04:21:58 25° NNE 04:23:47 10° NNE
SL-16 R/B 4.4 04:17:08 10° N 04:21:39 24° ENE 04:26:06 10° ESE
Cosmos 1346 Rocket 4.4 04:26:51 34° ENE 04:26:51 34° ENE 04:29:47 10° NNE
Cosmos 2227 Rocket 2.6 04:31:28 51° NNW 04:31:28 51° NNW 04:35:58 10° NNE
Cosmos 1727 Rocket 3.8 04:30:48 77° WSW 04:31:02 78° W 04:37:22 10° N
Gbstr 26 Del rocket 4.3 04:28:27 43° NW 04:31:21 90° SSW 04:39:31 10° SE
Cosmos 1680 Rocket 3.9 04:26:33 10° N 04:31:47 63° ENE 04:36:57 10° SSE
CZ-2D R/B 4.3 04:29:40 10° NNW 04:30:28 14° NNW 04:30:28 14° NNW
NOSS 3-4 (A) 3.9 04:35:45 47° NW 04:35:45 47° NW 04:41:38 10° NNE
NOSS 3-4 (C) 3.8 04:35:50 48° NW 04:35:50 48° NW 04:41:45 10° NNE
Cosmos 2297 Rocket 2.0 04:39:40 74° WNW 04:39:40 74° WNW 04:45:20 10° NNE
Cosmos 2219 Rocket 3.9 04:44:31 19° S 04:44:31 19° S 04:46:00 10° S
FALCON 9 R/B 3.5 04:40:19 34° SSW 04:42:52 50° SE 05:00:31 10° ENE
Okean-O 4.1 04:39:50 10° NNE 04:43:57 36° E 04:48:01 10° SSE
Cosmos 2298 Rocket 4.3 04:45:56 29° S 04:48:37 66° ESE 04:53:52 10° NNE
IRS-1C Rocket 4.3 04:52:38 10° N 04:57:35 48° WNW 04:57:35 48° WNW
Thor Agena Rocket 3.9 04:53:24 10° SSE 04:58:38 69° ENE 05:03:54 10° N
Resurs 1-4 Rocket 4.4 04:56:12 10° NNW 04:56:17 10° NNW 04:56:17 10° NNW
CZ-4B DEB 4.1 04:55:06 10° N 05:00:32 66° WNW 05:02:41 37° SW
NOSS 0 Rocket 4.0 04:54:36 10° NNW 05:00:36 51° WSW 05:06:35 10° S
Cosmos 2150 Rocket 4.0 04:59:41 21° S 05:03:07 78° ESE 05:08:16 10° NNE
Cosmos 1025 Rocket 4.0 05:04:57 31° NW 05:04:57 31° NW 05:07:38 10° N
Cosmos 1153 Rocket 4.5 04:58:03 10° NNW 05:04:17 61° W 05:10:34 10° S
CZ-4B R/B 3.4 05:01:53 10° N 05:05:47 46° WNW 05:05:47 46° WNW
GOES 2 Rocket 4.3 05:04:23 38° SW 05:06:29 54° S 05:13:55 10° ESE
Cosmos 1605 Rocket 4.4 05:02:30 10° NNW 05:08:03 37° W 05:08:06 37° W
Meteor 1-31 Rocket 4.4 05:06:29 10° NNE 05:10:06 36° E 05:13:43 10° SSE
Meteor 1-15 Rocket 4.3 05:07:32 10° N 05:13:07 77° E 05:18:45 10° SSE
Okean 2 3.4 05:15:42 44° SW 05:16:37 54° W 05:20:41 10° N
Okean O Rocket 3.1 05:13:07 10° NNW 05:15:18 21° NW 05:15:18 21° NW
Cosmos 2098 Rocket 4.0 05:16:42 10° N 05:20:43 54° E 05:25:50 10° SSE
Cosmos 2333 Rocket 2.8 05:16:31 10° NW 05:21:34 33° WSW 05:26:33 10° SSW
Cosmos 1606 Rocket 3.7 05:18:07 10° NNW 05:22:18 47° W 05:26:26 10° SSW
DELTA 2 R/B (1) 3.8 05:23:27 29° W 05:26:12 61° NNW 05:31:44 10° ENE
MOS 1 Rocket 3.7 05:22:32 10° NNE 05:27:24 72° E 05:32:33 10° S
Feng Yun 1-1 Rocket 4.2 05:22:24 10° N 05:28:05 82° WNW 05:33:54 10° SSW
Tiangong 1 3.2 05:27:24 15° NNW 05:28:07 16° N 05:30:07 10° NE
NOSS 3-2 (A) 4.3 05:21:11 10° NW 05:28:25 44° WSW 05:36:00 10° S
Delta 2 Rocket 3.0 05:27:48 34° WNW 05:29:17 75° N 05:32:48 10° E
CZ-3A R/B 3.7 05:24:24 17° SW 05:30:34 28° S 05:33:58 10° SE
Cosmos 1666 3.0 05:28:06 10° NNW 05:31:45 41° W 05:35:21 10° SSW
COBE Rocket 3.9 05:27:09 10° NNE 05:31:56 78° E 05:36:35 10° S
Meteor 2-15 Rocket 4.4 05:26:04 10° S 05:32:09 87° E 05:38:14 10° N
Cosmos 1726 Rocket 3.9 05:29:10 10° NNW 05:33:17 41° W 05:37:22 10° SSW
Cosmos 1898 Rocket 3.8 05:30:03 17° SW 05:33:52 48° WNW 05:38:59 10° N
Lacrosse 5 3.6 05:36:26 14° NW 05:38:02 16° NW 05:41:10 10° N
Cosmos 1602 Rocket 3.6 05:33:53 10° S 05:38:20 87° E 05:42:47 10° N
USA 215 4.4 05:36:58 10° SSW 05:41:33 20° WSW 05:43:35 18° W
CZ-4B R/B 4.2 05:37:50 10° NNW 05:42:08 25° WNW 05:44:34 18° WSW
Cosmos 2061 Rocket 4.1 05:37:11 10° NNW 05:43:18 53° W 05:49:27 10° SSW
Hubble Space Telescope 2.8 05:43:17 13° SW 05:44:21 14° SSW 05:46:30 10° S
Cosmos 2237 Rocket 3.1 05:41:27 10° NW 05:45:54 25° WSW 05:50:20 10° SSW
Cosmos 2100 Rocket 4.3 05:40:23 10° NNW 05:46:14 44° W 05:52:08 10° SSW
Cosmos 1802 Rocket 4.0 05:40:37 10° NNW 05:46:36 56° W 05:52:33 10° SSW
Cosmos 292 Rocket 4.1 05:42:12 10° NNW 05:46:47 42° WSW 05:51:20 10° S
Cosmos 2227 4.2 05:41:14 10° SSW 05:46:59 84° WNW 05:52:46 10° NNE
Cosmos 1937 Rocket 3.7 05:42:41 10° SW 05:47:43 50° WNW 05:52:49 10° N
USA 129 1.4 05:45:45 10° SSE 05:47:46 86° ENE 05:49:39 10° N
ATLAS 5 CENTAUR R/B 3.0 05:46:31 10° NW 05:52:07 35° WSW 05:57:59 10° S
Centaur D-1AR AC-36 3.4 05:51:22 11° SW 05:53:27 15° SSW 05:55:27 10° SSE
Delta 142 4.3 05:53:10 15° WSW 05:56:22 36° S 06:00:08 10° ESE
ADEOS II 2.7 05:51:55 10° N 05:56:39 35° WNW 06:01:21 10° SW
NOAA 6 4.0 05:51:27 10° N 05:56:40 83° WNW 06:01:50 10° SSW
Cosmos 1725 Rocket 4.0 05:52:43 10° N 05:59:02 83° W 06:05:17 10° S
NOSS 2-2 (D) 3.7 05:56:41 10° SW 06:00:36 49° NW 06:04:59 10° NNE
ADEOS Rocket 4.1 05:56:43 10° N 06:02:34 29° WNW 06:07:57 10° WSW
CENTAUR R/B 3.3 05:56:32 10° NNW 06:04:33 81° ENE 06:12:55 10° SSE
Cosmos 2228 3.6 06:00:35 10° NNW 06:04:34 35° W 06:08:31 10° SSW
OTV 4 1.4 06:03:32 14° W 06:05:20 28° SSW 06:07:44 10° SE
SL-16 R/B 2.6 06:00:34 10° NW 06:05:51 41° WSW 06:11:07 10° S
Cosmos 972 Rocket 4.2 06:01:02 10° SSW 06:06:16 62° WNW 06:12:12 10° N
Radarsat Rocket 4.1 05:59:46 10° NNE 06:06:24 84° WNW 06:12:23 10° SSW
Cosmos 1812 Rocket 3.6 06:02:51 10° N 06:07:18 89° W 06:11:46 10° S
OAO 2 Rocket 3.5 06:03:39 11° WSW 06:08:51 79° SSE 06:14:11 10° E
Cosmos 1066 Rocket 4.2 06:05:32 10° S 06:11:06 84° W 06:16:53 10° N
NOSS 2-2 (C) 4.3 06:12:19 10° WSW 06:16:03 34° NW 06:20:13 10° NNE
NOSS 2-2 (E) 4.5 06:14:19 10° WSW 06:17:57 30° NW 06:22:03 10° N
Okean-O 4.2 06:17:17 10° NNW 06:20:06 17° WNW 06:22:55 10° WSW
